This is the latest recevied weather packets stored in our database for station/object WC4PEM-1. If no packets are shown the sender has not sent any weather packets the latest 10 day(s).
| Time | Temp. | Humidity | Pressure | Rain* | Wind** | Luminosity | Snow |
|---|---|---|---|---|---|---|---|
| 1777665514 | 32.22° C | 42% | 1008.7 hPa | 0 mm | - | 846 W/m² | - |
| 1777665214 | 32.22° C | 43% | 1008.7 hPa | 0 mm | - | 281 W/m² | - |
| 1777665021 | 32.78° C | 41% | 1008.8 hPa | 0 mm | - | 587 W/m² | - |
| 1777664914 | 32.78° C | 41% | 1008.8 hPa | 0 mm | - | 587 W/m² | - |
| 1777664614 | 32.78° C | 43% | 1008.9 hPa | 0 mm | - | 870 W/m² | - |
| 1777664314 | 32.78° C | 43% | 1009.1 hPa | 0 mm | - | 749 W/m² | - |
| 1777664014 | 32.78° C | 42% | 1009.1 hPa | 0 mm | - | 865 W/m² | - |
| 1777663714 | 32.78° C | 41% | 1009.2 hPa | 0 mm | - | 963 W/m² | - |
| 1777663414 | 32.78° C | 42% | 1009.4 hPa | 0 mm | - | 733 W/m² | - |
| 1777663114 | 33.33° C | 42% | 1009.5 hPa | 0 mm | - | 838 W/m² | - |
| 1777662814 | 32.78° C | 44% | 1009.6 hPa | 0 mm | - | 921 W/m² | - |
| 1777662514 | 32.78° C | 43% | 1009.7 hPa | 0 mm | - | 213 W/m² | - |
| 1777662482 | 32.78° C | 43% | 1009.7 hPa | 0 mm | - | 791 W/m² | - |
| 1777662214 | 32.78° C | 43% | 1009.7 hPa | 0 mm | - | 791 W/m² | - |
| 1777661914 | 32.78° C | 43% | 1009.9 hPa | 0 mm | - | 812 W/m² | - |
| 1777661618 | 32.22° C | 46% | 1010.1 hPa | 0 mm | - | 1016 W/m² | - |
| 1777661615 | 32.78° C | 43% | 1009.9 hPa | 0 mm | - | 1037 W/m² | - |
| 1777661315 | 32.78° C | 46% | 1010 hPa | 0 mm | - | 494 W/m² | - |
| 1777661014 | 32.22° C | 46% | 1010.1 hPa | 0 mm | - | 1016 W/m² | - |
| 1777660907 | 32.22° C | 46% | 1010 hPa | 0 mm | - | 1039 W/m² | - |
| 1777660714 | 32.22° C | 46% | 1010 hPa | 0 mm | - | 1039 W/m² | - |
| 1777660415 | 31.67° C | 46% | 1010 hPa | 0 mm | - | 717 W/m² | - |
| 1777660114 | 31.67° C | 47% | 1010.1 hPa | 0 mm | - | 619 W/m² | - |
| 1777659814 | 32.22° C | 46% | 1010.1 hPa | 0 mm | - | 791 W/m² | - |
| 1777659514 | 32.22° C | 48% | 1010.1 hPa | 0 mm | - | 986 W/m² | - |
* Rain latest hour (hover to see other rain measurements)
** Current wind speed in m/s (hover to see current wind gust speed)